{"data":{"norad_id":51648,"intl_designator":"2022-012AC","name":"ONEWEB-0458","alt_names":[],"object_type":"PAYLOAD","status":"ACTIVE","operator":null,"country":"UK","launch_date":"2022-02-10","launch_site_code":"FRGUI","launch_vehicle":null,"mission":null,"orbit_class":"UNKNOWN","rcs_meters":null,"size_class":null,"mass_kg":null,"dimensions":null,"purposes":["comms"],"wikipedia_slug":null,"has_3d_model":false,"image_url":null,"decayed_at":null,"tle_current":{"epoch":"2026-09-15T01:14:04.264800Z","epoch_age_seconds":496431,"freshness":"STALE","line1":"1 51648U 22012AC  26258.05143825 -.00007879  00000+0 -22150-1 0  9995","line2":"2 51648  87.8897  18.3619 0000344 126.7082 233.4078 13.11833582221072","mean_motion":13.11833582,"eccentricity":3.44e-5,"inclination_deg":87.8897,"raan_deg":18.3619,"arg_perigee_deg":126.7082,"mean_anomaly_deg":233.4078,"bstar":-0.02215,"rev_number":22107,"period_min":109.77002111843,"perigee_km":1215.8130893307,"apogee_km":1216.3355710702,"semimajor_km":7594.2113302005,"source":"CELESTRAK","updated_at":"2026-09-20T09:00:44.713003Z"}}}